ICEYE-X53 (64584 NORAD) Tracking and Keplerian Element Data

This shows tracking and keplerian element data for the satellite.

Feedback or suggestion? Click here.




ElementValue
Catalog64584
NameICEYE-X53
Epoch Orbit2724
Epoch Day354.28548623
Epoch Year2025
RAAN106.6875
Inclination97.7561
Eccentricity0.0002696
Argument of Perigee189.855
Mean Anonmoly170.2621
Mean Motion15.00892936
Decay Rate3.565E-05
L11 64584U 25135BJ 25354.28548623 .00003565 00000+0 28480-3 0 9993
L22 64584 97.7561 106.6875 0002696 189.8550 170.2621 15.00892936 27243



Live tracking and technical data element details for ICEYE-X53 (NORAD 64584). ICEYE-X53 can be tracked NOW for your location showing map with azimuth and elevation plus other details from your city location.







IsCatalogInMostPopularTable: catalog: 64584, numindb: 24
Update: records affected: 1



GetName: 64584 ICEYE-X53

Hit Count: updated at: Mon, 20 Apr 2026 10:51:28 GMT